Content
SEND FEEDBACK

Daily
Averages
Monthly
Summary
United States of America

PUT IN BAY, OHIO


Home > North America > United States > Ohio
Elevation: 171 meters     Latitude: 41 39N     Longitude: 082 48W

WEATHER
 
SELECT A DAY
Number of Records: 122,859;   Date Range: 12/10/00 - 8/26/14
 
SHARE

PRINT THIS DATA

[ ← Previous Day ]
WEATHER ALMANAC - 8 APRIL, 2013
[ Next Day → ]
[ °F ]   °C
Weather ElementAverageHighLow
Temperature8.3 °C17.3 °C (6:00 pm)1.1 °C (4:00 am)
Dewpoint4.1 °C10.9 °C (6:00 pm)-1.2 °C (3:00 am)
Humidity74.7 %92 % (3:00 pm)57 % (8:00 pm)
Barometer1012.5 hPa1017.9 hPa (1:00 am)1006.4 hPa (6:00 pm)
Wind Speed11.9 km/h31.5 km/h (6:00 pm)
Wind Gust44.4 km/h (7:00 pm)
Weather ElementAverage
Wind DirectionSSE (151.1 °)

Weather ElementTotal
Precipitation1.78 mm
Heating Degree Days9.2 (Base 18.3)
Averaged from 27 records on 8 April, 2013
WEATHER CONDITIONS BREAKOUT
WIND DIRECTION BREAKOUT
WEATHER BY HOUR - 8 APRIL, 2013
[ °F ]   °C
Local TimeTemperatureDewpointHumidityBarometerVisibilityWind DirectionWind SpeedGust SpeedPrecipitationEventsConditions
1:00 AM2.8 °C-0.7 °C78 %1017.9 hPaEast (100°)1.9 km/h
2:00 AM1.7 °C-0.6 °C78 %1017.9 hPaEast (100°)1.9 km/h
2:00 AM1.7 °C-0.8 °C84 %1017.9 hPaEast (100°)1.9 km/h
3:00 AM1.5 °C-1.2 °C82 %1017.3 hPaEast (90°)3.7 km/h
4:00 AM1.1 °C-1 °C86 %1016.9 hPaESE (110°)1.9 km/h
5:00 AM1.6 °C-0.1 °C89 %1016.6 hPaESE (110°)3.7 km/h
6:00 AM2 °C-0.3 °C85 %1015.9 hPaEast (100°)3.7 km/h
7:00 AM3.4 °C0.8 °C83 %1015.9 hPaESE (110°)5.6 km/h
8:00 AM5 °C1.7 °C71 %1015.9 hPaESE (110°)9.3 km/h
8:00 AM5 °C1.5 °C78 %1015.9 hPaESE (110°)9.3 km/h
9:00 AM6.5 °C1.9 °C73 %1015.6 hPaESE (120°)13 km/h
10:00 AM7.8 °C2.3 °C68 %1014.6 hPaSE (130°)13 km/h
11:00 AM8 °C2.4 °C68 %1013.5 hPaESE (120°)14.8 km/h27.8 km/h
12:00 PM8.5 °C3.6 °C71 %1012.2 hPaESE (120°)13 km/h
1:00 PM8.4 °C3.5 °C71 %1010.8 hPaESE (120°)11.1 km/h
2:00 PM8.9 °C3.9 °C63 %1009.5 hPaESE (120°)11.1 km/h
2:00 PM9 °C4 °C71 %1009.5 hPaESE (120°)11.1 km/h
3:00 PM8.1 °C6.9 °C92 %1009.1 hPaESE (120°)9.3 km/h1.78 mm
4:00 PM9.5 °C8.2 °C92 %1008.1 hPaSE (140°)7.4 km/h
5:00 PM12.8 °C10.3 °C85 %1007.1 hPaSouth (170°)14.8 km/h
6:00 PM17.3 °C10.9 °C66 %1006.4 hPaSSW (210°)31.5 km/h
7:00 PM16.4 °C10 °C66 %1006.8 hPaSW (230°)25.9 km/h44.4 km/h
8:00 PM16.7 °C10.6 °C57 %1007.8 hPaWSW (240°)22.2 km/h
8:00 PM16.4 °C10.3 °C67 %1007.8 hPaWSW (240°)22.2 km/h35.2 km/h
9:00 PM16.3 °C10 °C66 %1009.5 hPaWest (270°)18.5 km/h
10:00 PM14.7 °C6.9 °C60 %1011.5 hPaWest (280°)20.4 km/h
11:00 PM12.7 °C6.4 °C66 %1012.9 hPaWNW (290°)16.7 km/h
Hourly data recorded from CXHA, located 0 kilometers away from Put In Bay, Ohio







STORIES FROM OUR PARTNERS